Location: Ceska republika
(50.0000°N, 15.0000°E)
Time: 05:53:56
(UTC+02:00)

ISS - Pass Details

Date: 11 October 2017
Orbit: 401 x 408 km, 51.6° (Epoch: 17 October)

Event Time Altitude Azimuth Distance (km) Brightness Sun altitude
Rises 20:14:10 0° 286° (WNW) 2,328 1.7 -19.6°
Reaches altitude 10° 20:16:25 10° 274° (W) 1,466 0.2 -19.9°
Maximum altitude 20:19:17 28° 214° (SW) 806 -2.2 -20.4°
Enters shadow 20:19:43 27° 199° (SSW) 828 -2.3 -20.4°
